{"data":{"norad_id":60527,"epoch":"2026-09-22T17:29:50.533440Z","epoch_age_seconds":96526,"freshness":"FRESH","line1":"1 60527U 24149BM  26265.72905710  .00009073  00000+0  24364-3 0  9992","line2":"2 60527  97.3670 347.5233 0005067 309.4584  50.6212 15.38150702117155","mean_motion":15.38150702,"eccentricity":0.0005067,"inclination_deg":97.367,"raan_deg":347.5233,"arg_perigee_deg":309.4584,"mean_anomaly_deg":50.6212,"bstar":0.00024364,"rev_number":11715,"period_min":93.618915111999,"perigee_km":448.11740591969,"apogee_km":455.03863912352,"semimajor_km":6829.7150225216,"source":"CELESTRAK","updated_at":"2026-09-23T09:00:20.667488Z"}}